QPF
0.01 0.01 0.01 0.00 0.00 0.01 0.01 0.01 0.02 0.02 0.02 0.02 0.02 0.02 0.02 0.02 0.01 0.01 0.01 0.01 0.01 0.01 0.01 0.01 0.01 0.02 0.02 0.02 0.02 0.02 0.02 0.02 0.02 0.01 0.02 0.02 0.01 0.01 0.01 0.01 0.02 0.03 0.03
0.01 0.01 0.01 0.01 0.01 0.00 0.00 0.01 0.01 0.02 0.03 0.03 0.04 0.03 0.02 0.01 0.01 0.01 0.01 0.00 0.00 0.01 0.01 0.01 0.01 0.01 0.02 0.03 0.02 0.02 0.02 0.02 0.02 0.02 0.03 0.02 0.02 0.01 0.01 0.01 0.01 0.02 0.02
0.02 0.02 0.01 0.02 0.01 0.01 0.01 0.01 0.01 0.02 0.02 0.03 0.04 0.03 0.03 0.02 0.02 0.02 0.02 0.01 0.00 0.01 0.02 0.02 0.03 0.03 0.03 0.03 0.04 0.02 0.02 0.02 0.02 0.02 0.03 0.03 0.03 0.02 0.02 0.02 0.02 0.02 0.01
0.02 0.02 0.01 0.02 0.02 0.02 0.01 0.01 0.01 0.01 0.01 0.02 0.03 0.03 0.03 0.03 0.02 0.01 0.02 0.01 0.00 0.01 0.02 0.02 0.02 0.03 0.03 0.02 0.03 0.03 0.03 0.03 0.03 0.02 0.02 0.02 0.02 0.02 0.03 0.03 0.03 0.03 0.02
0.01 0.01 0.00 0.01 0.02 0.03 0.02 0.02 0.01 0.01 0.01 0.01 0.02 0.04 0.04 0.02 0.01 0.01 0.01 0.01 0.00 0.00 0.02 0.02 0.02 0.02 0.03 0.02 0.02 0.03 0.03 0.03 0.03 0.02 0.02 0.03 0.03 0.02 0.02 0.03 0.03 0.03 0.02
0.00 0.00 0.00 0.01 0.02 0.02 0.03 0.02 0.02 0.01 0.01 0.01 0.03 0.03 0.04 0.04 0.02 0.02 0.02 0.01 0.01 0.01 0.01 0.02 0.03 0.02 0.02 0.03 0.03 0.02 0.02 0.02 0.03 0.03 0.03 0.04 0.04 0.03 0.03 0.03 0.04 0.04 0.03
0.00 0.01 0.01 0.01 0.01 0.01 0.02 0.02 0.01 0.01 0.02 0.03 0.03 0.03 0.03 0.03 0.02 0.02 0.02 0.01 0.01 0.01 0.01 0.01 0.01 0.01 0.01 0.02 0.03 0.03 0.04 0.02 0.03 0.03 0.02 0.03 0.03 0.03 0.03 0.03 0.03 0.03 0.03
0.00 0.01 0.04 0.03 0.01 0.01 0.02 0.02 0.03 0.02 0.02 0.03 0.03 0.04 0.03 0.03 0.03 0.02 0.02 0.02 0.02 0.01 0.01 0.02 0.01 0.01 0.00 0.01 0.03 0.02 0.02 0.03 0.03 0.03 0.03 0.03 0.03 0.02 0.02 0.02 0.03 0.03 0.02
0.00 0.00 0.03 0.02 0.01 0.01 0.02 0.02 0.04 0.03 0.04 0.04 0.05 0.05 0.03 0.03 0.03 0.02 0.03 0.03 0.03 0.02 0.01 0.01 0.01 0.01 0.01 0.02 0.03 0.03 0.03 0.03 0.03 0.03 0.04 0.04 0.03 0.02 0.02 0.02 0.03 0.03 0.03
0.00 0.00 0.01 0.01 0.01 0.01 0.02 0.03 0.04 0.04 0.05 0.06 0.06 0.07 0.05 0.04 0.03 0.02 0.02 0.02 0.03 0.03 0.02 0.02 0.01 0.01 0.01 0.01 0.03 0.03 0.03 0.03 0.02 0.02 0.03 0.04 0.03 0.02 0.02 0.02 0.02 0.03 0.03
0.00 0.00 0.01 0.01 0.01 0.01 0.02 0.02 0.03 0.04 0.05 0.07 0.07 0.07 0.06 0.05 0.04 0.03 0.02 0.02 0.02 0.03 0.02 0.02 0.01 0.01 0.02 0.02 0.02 0.02 0.02 0.03 0.01 0.01 0.02 0.03 0.03 0.04 0.04 0.03 0.03 0.04 0.04
0.00 0.00 0.01 0.01 0.01 0.01 0.01 0.03 0.04 0.04 0.04 0.04 0.05 0.05 0.07 0.07 0.06 0.04 0.03 0.03 0.02 0.02 0.03 0.02 0.02 0.01 0.02 0.02 0.01 0.01 0.03 0.03 0.02 0.01 0.01 0.02 0.03 0.03 0.04 0.04 0.05 0.05 0.05
0.00 0.00 0.01 0.02 0.02 0.02 0.03 0.03 0.04 0.04 0.04 0.03 0.04 0.05 0.08 0.08 0.07 0.04 0.03 0.03 0.02 0.02 0.02 0.01 0.01 0.02 0.03 0.03 0.02 0.01 0.02 0.02 0.02 0.02 0.02 0.02 0.02 0.02 0.03 0.05 0.06 0.06 0.06
0.00 0.00 0.00 0.01 0.03 0.05 0.04 0.03 0.05 0.07 0.06 0.04 0.03 0.04 0.07 0.10 0.12 0.08 0.04 0.03 0.03 0.03 0.02 0.02 0.01 0.01 0.01 0.02 0.02 0.02 0.02 0.03 0.03 0.03 0.02 0.03 0.03 0.03 0.04 0.04 0.05 0.06 0.06
0.00 0.01 0.00 0.00 0.01 0.02 0.02 0.03 0.03 0.03 0.03 0.04 0.03 0.02 0.04 0.07 0.12 0.12 0.08 0.05 0.04 0.03 0.03 0.02 0.02 0.01 0.01 0.02 0.02 0.01 0.02 0.03 0.03 0.03 0.04 0.03 0.03 0.03 0.04 0.03 0.05 0.05 0.04
0.01 0.01 0.01 0.01 0.00 0.00 0.01 0.01 0.02 0.02 0.02 0.03 0.02 0.02 0.03 0.05 0.10 0.13 0.11 0.09 0.07 0.05 0.04 0.02 0.02 0.02 0.01 0.03 0.04 0.02 0.01 0.02 0.03 0.03 0.03 0.03 0.03 0.02 0.02 0.03 0.03 0.04 0.03
0.00 0.01 0.01 0.01 0.01 0.00 0.00 0.01 0.01 0.02 0.02 0.02 0.02 0.02 0.02 0.03 0.04 0.07 0.10 0.10 0.10 0.09 0.06 0.04 0.03 0.03 0.02 0.04 0.03 0.02 0.02 0.03 0.03 0.02 0.02 0.02 0.03 0.02 0.02 0.02 0.02 0.02 0.02
0.00 0.00 0.00 0.01 0.01 0.01 0.01 0.01 0.02 0.02 0.03 0.03 0.02 0.02 0.03 0.03 0.03 0.05 0.08 0.08 0.07 0.08 0.09 0.09 0.08 0.06 0.05 0.03 0.03 0.03 0.02 0.01 0.01 0.02 0.02 0.02 0.02 0.02 0.02 0.02 0.02 0.02 0.02
0.00 0.00 0.00 0.00 0.01 0.01 0.01 0.02 0.02 0.02 0.02 0.02 0.01 0.02 0.02 0.02 0.02 0.04 0.06 0.07 0.05 0.05 0.06 0.07 0.08 0.09 0.08 0.05 0.03 0.02 0.01 0.01 0.01 0.02 0.02 0.02 0.02 0.02 0.02 0.02 0.02 0.02 0.02
0.00 0.00 0.00 0.01 0.01 0.02 0.02 0.03 0.02 0.02 0.01 0.01 0.01 0.01 0.01 0.01 0.01 0.02 0.04 0.06 0.06 0.04 0.03 0.04 0.04 0.05 0.06 0.06 0.04 0.02 0.01 0.01 0.01 0.01 0.02 0.03 0.02 0.02 0.02 0.02 0.02 0.03 0.02
0.00 0.00 0.01 0.02 0.02 0.02 0.03 0.03 0.03 0.02 0.01 0.01 0.01 0.01 0.01 0.01 0.01 0.01 0.02 0.03 0.04 0.05 0.04 0.04 0.03 0.03 0.03 0.03 0.04 0.03 0.01 0.01 0.01 0.01 0.01 0.01 0.02 0.02 0.02 0.02 0.02 0.03 0.02
0.00 0.00 0.01 0.02 0.03 0.03 0.03 0.02 0.02 0.02 0.01 0.01 0.01 0.01 0.01 0.01 0.01 0.01 0.01 0.02 0.03 0.03 0.03 0.03 0.03 0.02 0.02 0.01 0.02 0.02 0.02 0.01 0.01 0.01 0.01 0.01 0.01 0.01 0.02 0.02 0.03 0.04 0.03
0.01 0.01 0.01 0.02 0.03 0.03 0.03 0.02 0.02 0.01 0.01 0.01 0.01 0.01 0.01 0.01 0.01 0.01 0.01 0.02 0.02 0.02 0.03 0.03 0.03 0.03 0.02 0.01 0.01 0.01 0.01 0.01 0.01 0.01 0.01 0.01 0.01 0.02 0.02 0.03 0.03 0.03 0.03
0.01 0.01 0.02 0.02 0.01 0.02 0.02 0.02 0.01 0.01 0.00 0.01 0.01 0.01 0.01 0.01 0.01 0.01 0.01 0.01 0.02 0.02 0.02 0.02 0.03 0.03 0.03 0.02 0.02 0.01 0.01 0.01 0.01 0.01 0.01 0.01 0.01 0.01 0.02 0.02 0.03 0.02 0.02
0.00 0.01 0.01 0.02 0.02 0.01 0.01 0.02 0.02 0.01 0.00 0.01 0.01 0.01 0.01 0.01 0.01 0.01 0.01 0.01 0.02 0.03 0.03 0.04 0.03 0.04 0.04 0.03 0.02 0.02 0.02 0.01 0.01 0.01 0.01 0.01 0.01 0.01 0.02 0.02 0.03 0.03 0.03
0.01 0.01 0.01 0.01 0.02 0.02 0.02 0.02 0.03 0.02 0.01 0.01 0.01 0.01 0.01 0.01 0.01 0.00 0.01 0.01 0.01 0.01 0.02 0.03 0.03 0.03 0.03 0.03 0.02 0.02 0.02 0.02 0.01 0.01 0.02 0.02 0.02 0.02 0.03 0.03 0.03 0.03 0.04
MSLP
1002.04 1002.03 1002.16 1002.43 1002.86 1003.46 1004.19 1005.05 1005.99 1006.94 1007.86 1008.70 1009.43 1010.03 1010.53 1010.94 1011.31 1011.69 1012.12 1012.64 1013.26 1013.96 1014.74 1015.55 1016.38 1017.18 1017.95 1018.67 1019.36 1020.00 1020.63 1021.25 1021.84 1022.41 1022.92 1023.36 1023.70 1023.94 1024.05 1024.06 1024.01 1023.91 1023.82
1001.66 1001.65 1001.72 1001.92 1002.27 1002.78 1003.46 1004.31 1005.27 1006.31 1007.35 1008.33 1009.20 1009.94 1010.54 1011.01 1011.42 1011.80 1012.22 1012.71 1013.30 1013.99 1014.76 1015.58 1016.42 1017.24 1018.02 1018.74 1019.42 1020.06 1020.68 1021.29 1021.89 1022.47 1023.03 1023.52 1023.92 1024.22 1024.40 1024.47 1024.47 1024.41 1024.35
1001.20 1001.20 1001.25 1001.40 1001.67 1002.10 1002.72 1003.52 1004.50 1005.58 1006.71 1007.82 1008.82 1009.69 1010.41 1010.98 1011.44 1011.85 1012.27 1012.75 1013.32 1013.99 1014.74 1015.55 1016.38 1017.19 1017.96 1018.67 1019.34 1019.96 1020.56 1021.16 1021.77 1022.37 1022.95 1023.48 1023.94 1024.30 1024.56 1024.71 1024.78 1024.79 1024.79
1000.56 1000.61 1000.68 1000.81 1001.03 1001.41 1001.97 1002.73 1003.69 1004.80 1005.99 1007.18 1008.30 1009.29 1010.12 1010.79 1011.34 1011.80 1012.25 1012.74 1013.30 1013.95 1014.68 1015.47 1016.27 1017.06 1017.81 1018.50 1019.15 1019.75 1020.34 1020.93 1021.52 1022.12 1022.71 1023.27 1023.76 1024.18 1024.50 1024.73 1024.88 1024.99 1025.07
999.70 999.83 999.97 1000.13 1000.36 1000.71 1001.24 1001.97 1002.91 1004.02 1005.23 1006.48 1007.67 1008.76 1009.69 1010.46 1011.09 1011.62 1012.13 1012.64 1013.21 1013.86 1014.57 1015.33 1016.11 1016.88 1017.61 1018.28 1018.91 1019.50 1020.07 1020.64 1021.21 1021.79 1022.36 1022.91 1023.42 1023.86 1024.23 1024.53 1024.77 1024.97 1025.15
998.65 998.89 999.13 999.38 999.66 1000.05 1000.58 1001.29 1002.21 1003.30 1004.50 1005.75 1006.98 1008.12 1009.12 1009.97 1010.68 1011.30 1011.87 1012.44 1013.04 1013.70 1014.42 1015.17 1015.94 1016.69 1017.40 1018.07 1018.68 1019.26 1019.81 1020.35 1020.89 1021.43 1021.96 1022.47 1022.96 1023.39 1023.79 1024.13 1024.44 1024.73 1025.02
997.49 997.86 998.23 998.59 998.98 999.44 1000.01 1000.74 1001.64 1002.69 1003.86 1005.08 1006.29 1007.43 1008.46 1009.36 1010.14 1010.84 1011.48 1012.11 1012.77 1013.47 1014.21 1014.98 1015.76 1016.51 1017.23 1017.89 1018.51 1019.07 1019.60 1020.11 1020.60 1021.08 1021.55 1022.00 1022.43 1022.83 1023.22 1023.59 1023.95 1024.32 1024.70
996.34 996.82 997.33 997.84 998.36 998.93 999.57 1000.33 1001.22 1002.24 1003.35 1004.50 1005.66 1006.76 1007.77 1008.69 1009.51 1010.26 1010.97 1011.68 1012.41 1013.17 1013.96 1014.77 1015.57 1016.35 1017.09 1017.77 1018.38 1018.95 1019.46 1019.93 1020.36 1020.78 1021.17 1021.54 1021.90 1022.25 1022.61 1022.98 1023.39 1023.82 1024.28
995.36 995.92 996.54 997.18 997.84 998.53 999.27 1000.08 1000.97 1001.95 1002.99 1004.06 1005.12 1006.15 1007.11 1008.00 1008.83 1009.61 1010.38 1011.16 1011.97 1012.80 1013.66 1014.52 1015.38 1016.19 1016.96 1017.67 1018.30 1018.87 1019.36 1019.80 1020.19 1020.53 1020.84 1021.13 1021.42 1021.72 1022.04 1022.41 1022.83 1023.31 1023.85
994.69 995.26 995.94 996.68 997.45 998.25 999.08 999.96 1000.87 1001.82 1002.79 1003.77 1004.72 1005.64 1006.52 1007.35 1008.16 1008.95 1009.76 1010.60 1011.47 1012.38 1013.30 1014.24 1015.15 1016.02 1016.82 1017.56 1018.22 1018.79 1019.28 1019.70 1020.04 1020.34 1020.58 1020.81 1021.03 1021.28 1021.58 1021.94 1022.38 1022.90 1023.48
994.43 994.95 995.61 996.38 997.22 998.10 999.00 999.93 1000.86 1001.80 1002.71 1003.60 1004.45 1005.26 1006.04 1006.80 1007.56 1008.34 1009.17 1010.04 1010.96 1011.93 1012.91 1013.90 1014.87 1015.78 1016.63 1017.40 1018.08 1018.67 1019.16 1019.57 1019.90 1020.16 1020.38 1020.57 1020.76 1020.98 1021.26 1021.63 1022.09 1022.63 1023.25
994.63 995.01 995.59 996.31 997.14 998.04 998.99 999.95 1000.91 1001.83 1002.71 1003.53 1004.30 1005.01 1005.70 1006.38 1007.08 1007.83 1008.64 1009.52 1010.47 1011.47 1012.50 1013.53 1014.53 1015.48 1016.36 1017.15 1017.86 1018.46 1018.97 1019.39 1019.72 1019.98 1020.19 1020.38 1020.56 1020.79 1021.08 1021.46 1021.94 1022.50 1023.14
995.26 995.45 995.86 996.46 997.21 998.08 999.02 999.99 1000.96 1001.88 1002.74 1003.52 1004.22 1004.87 1005.47 1006.08 1006.72 1007.43 1008.21 1009.09 1010.03 1011.04 1012.08 1013.12 1014.14 1015.10 1015.99 1016.80 1017.53 1018.15 1018.68 1019.13 1019.48 1019.77 1020.01 1020.21 1020.43 1020.68 1020.99 1021.39 1021.89 1022.47 1023.12
996.28 996.22 996.40 996.81 997.42 998.19 999.08 1000.03 1000.98 1001.90 1002.75 1003.51 1004.18 1004.78 1005.34 1005.90 1006.49 1007.15 1007.90 1008.74 1009.66 1010.65 1011.68 1012.71 1013.71 1014.66 1015.55 1016.37 1017.10 1017.74 1018.30 1018.78 1019.17 1019.51 1019.79 1020.04 1020.30 1020.59 1020.94 1021.36 1021.87 1022.46 1023.11
997.57 997.25 997.18 997.35 997.76 998.38 999.16 1000.05 1000.97 1001.88 1002.72 1003.47 1004.13 1004.72 1005.25 1005.78 1006.34 1006.96 1007.67 1008.48 1009.36 1010.32 1011.30 1012.30 1013.27 1014.20 1015.07 1015.87 1016.60 1017.26 1017.84 1018.36 1018.80 1019.19 1019.53 1019.84 1020.15 1020.48 1020.86 1021.31 1021.82 1022.41 1023.03
999.02 998.45 998.12 998.04 998.22 998.65 999.29 1000.06 1000.92 1001.79 1002.61 1003.36 1004.03 1004.61 1005.15 1005.67 1006.22 1006.82 1007.51 1008.28 1009.13 1010.03 1010.97 1011.92 1012.84 1013.73 1014.57 1015.35 1016.08 1016.74 1017.35 1017.90 1018.39 1018.83 1019.22 1019.59 1019.95 1020.32 1020.72 1021.17 1021.68 1022.25 1022.85
1000.50 999.72 999.15 998.83 998.78 999.00 999.45 1000.09 1000.84 1001.64 1002.43 1003.17 1003.84 1004.44 1004.99 1005.53 1006.09 1006.69 1007.36 1008.11 1008.93 1009.79 1010.68 1011.57 1012.45 1013.29 1014.09 1014.85 1015.56 1016.23 1016.85 1017.43 1017.96 1018.44 1018.89 1019.30 1019.70 1020.10 1020.51 1020.96 1021.45 1021.99 1022.56
1001.88 1000.96 1000.20 999.67 999.40 999.41 999.67 1000.14 1000.76 1001.46 1002.18 1002.89 1003.55 1004.17 1004.74 1005.31 1005.89 1006.52 1007.20 1007.94 1008.74 1009.57 1010.42 1011.27 1012.09 1012.89 1013.65 1014.38 1015.07 1015.73 1016.37 1016.97 1017.54 1018.06 1018.55 1019.00 1019.42 1019.84 1020.25 1020.69 1021.16 1021.67 1022.20
1003.08 1002.08 1001.20 1000.51 1000.06 999.87 999.93 1000.22 1000.68 1001.26 1001.89 1002.54 1003.18 1003.80 1004.40 1005.00 1005.63 1006.29 1006.99 1007.75 1008.54 1009.36 1010.18 1010.99 1011.77 1012.53 1013.25 1013.95 1014.62 1015.28 1015.92 1016.54 1017.14 1017.70 1018.22 1018.70 1019.15 1019.58 1020.00 1020.43 1020.87 1021.35 1021.85
1004.02 1003.01 1002.08 1001.29 1000.70 1000.35 1000.23 1000.34 1000.64 1001.07 1001.59 1002.17 1002.76 1003.37 1003.99 1004.63 1005.30 1006.00 1006.74 1007.52 1008.32 1009.13 1009.94 1010.72 1011.47 1012.19 1012.88 1013.55 1014.21 1014.86 1015.50 1016.14 1016.76 1017.35 1017.91 1018.43 1018.91 1019.36 1019.78 1020.21 1020.64 1021.09 1021.57
1004.67 1003.72 1002.79 1001.96 1001.28 1000.81 1000.55 1000.49 1000.63 1000.92 1001.32 1001.81 1002.35 1002.94 1003.56 1004.23 1004.93 1005.68 1006.46 1007.27 1008.08 1008.90 1009.69 1010.45 1011.17 1011.85 1012.52 1013.16 1013.80 1014.44 1015.09 1015.75 1016.39 1017.02 1017.62 1018.18 1018.69 1019.18 1019.63 1020.07 1020.51 1020.95 1021.42
1005.03 1004.18 1003.30 1002.49 1001.78 1001.23 1000.86 1000.68 1000.68 1000.84 1001.12 1001.52 1002.00 1002.55 1003.17 1003.85 1004.59 1005.37 1006.18 1007.01 1007.84 1008.65 1009.43 1010.17 1010.86 1011.52 1012.15 1012.77 1013.39 1014.03 1014.68 1015.35 1016.02 1016.68 1017.33 1017.93 1018.51 1019.04 1019.53 1020.00 1020.46 1020.91 1021.38
1005.16 1004.41 1003.63 1002.87 1002.18 1001.60 1001.17 1000.90 1000.80 1000.84 1001.03 1001.34 1001.76 1002.27 1002.88 1003.56 1004.30 1005.10 1005.93 1006.77 1007.60 1008.41 1009.17 1009.88 1010.55 1011.18 1011.78 1012.37 1012.98 1013.60 1014.25 1014.93 1015.63 1016.33 1017.02 1017.68 1018.31 1018.90 1019.44 1019.96 1020.45 1020.93 1021.41
1005.10 1004.49 1003.81 1003.13 1002.49 1001.93 1001.48 1001.16 1000.98 1000.95 1001.06 1001.30 1001.66 1002.13 1002.70 1003.37 1004.10 1004.90 1005.72 1006.56 1007.38 1008.17 1008.91 1009.60 1010.24 1010.84 1011.41 1011.98 1012.56 1013.17 1013.82 1014.51 1015.22 1015.95 1016.68 1017.39 1018.07 1018.72 1019.32 1019.88 1020.41 1020.93 1021.43
1004.96 1004.46 1003.89 1003.31 1002.74 1002.22 1001.79 1001.46 1001.25 1001.17 1001.22 1001.40 1001.70 1002.13 1002.66 1003.29 1004.00 1004.77 1005.58 1006.39 1007.19 1007.95 1008.67 1009.33 1009.94 1010.51 1011.06 1011.61 1012.17 1012.76 1013.40 1014.08 1014.80 1015.54 1016.30 1017.04 1017.76 1018.45 1019.09 1019.70 1020.27 1020.82 1021.34
1004.82 1004.41 1003.94 1003.45 1002.96 1002.51 1002.11 1001.79 1001.58 1001.47 1001.48 1001.61 1001.87 1002.24 1002.72 1003.31 1003.97 1004.70 1005.47 1006.24 1007.01 1007.75 1008.44 1009.08 1009.67 1010.22 1010.75 1011.28 1011.82 1012.39 1013.01 1013.68 1014.38 1015.12 1015.87 1016.62 1017.35 1018.06 1018.73 1019.37 1019.97 1020.53 1021.07
Thickness
5743 5744 5743 5741 5738 5735 5732 5729 5726 5725 5722 5718 5715 5712 5710 5711 5710 5710 5709 5708 5706 5705 5703 5701 5699 5697 5694 5693 5692 5689 5687 5686 5687 5684 5681 5684 5686 5686 5687 5687 5687 5687 5687
5737 5737 5738 5736 5734 5732 5730 5727 5724 5722 5720 5717 5714 5711 5709 5707 5707 5706 5705 5704 5703 5701 5700 5697 5694 5692 5690 5688 5687 5685 5682 5681 5682 5678 5674 5670 5672 5677 5681 5681 5681 5681 5682
5734 5733 5732 5731 5729 5727 5726 5725 5722 5720 5717 5715 5712 5709 5706 5704 5701 5700 5699 5700 5699 5697 5695 5693 5691 5688 5686 5683 5682 5681 5678 5674 5676 5677 5672 5666 5662 5666 5671 5674 5675 5675 5675
5735 5731 5730 5728 5727 5726 5725 5723 5720 5718 5716 5713 5708 5704 5699 5696 5696 5696 5695 5695 5695 5693 5691 5689 5687 5685 5683 5680 5679 5678 5676 5673 5670 5671 5672 5670 5667 5662 5660 5665 5668 5669 5669
5732 5729 5728 5726 5725 5724 5722 5720 5717 5715 5713 5710 5706 5702 5698 5696 5695 5694 5692 5691 5690 5689 5688 5686 5684 5681 5679 5677 5676 5674 5673 5671 5668 5666 5665 5665 5664 5664 5658 5654 5658 5661 5663
5730 5727 5727 5724 5722 5720 5718 5717 5714 5712 5710 5708 5704 5700 5696 5694 5691 5689 5687 5686 5685 5685 5684 5682 5680 5678 5675 5674 5672 5671 5669 5668 5666 5664 5662 5660 5658 5656 5655 5652 5651 5652 5655
5727 5723 5720 5718 5716 5715 5714 5714 5711 5708 5707 5705 5702 5699 5696 5693 5689 5686 5684 5682 5681 5680 5679 5678 5676 5674 5672 5671 5669 5667 5666 5664 5662 5660 5659 5658 5657 5656 5654 5650 5648 5648 5650
5724 5720 5717 5715 5713 5712 5711 5710 5708 5705 5704 5702 5700 5698 5695 5691 5688 5686 5683 5680 5678 5677 5676 5674 5673 5671 5669 5667 5665 5663 5662 5661 5659 5657 5656 5654 5653 5653 5651 5648 5644 5642 5643
5721 5719 5716 5714 5711 5709 5708 5707 5704 5702 5700 5698 5697 5694 5692 5689 5685 5683 5681 5678 5676 5675 5673 5671 5668 5666 5665 5663 5661 5658 5657 5656 5654 5653 5652 5650 5649 5649 5648 5646 5643 5638 5634
5718 5716 5713 5711 5709 5707 5705 5704 5702 5699 5696 5695 5693 5691 5688 5685 5682 5679 5677 5675 5673 5671 5669 5666 5664 5662 5660 5658 5656 5654 5652 5651 5649 5648 5647 5645 5645 5644 5643 5642 5640 5638 5634
5712 5711 5709 5708 5706 5704 5701 5699 5697 5695 5692 5690 5688 5686 5683 5681 5678 5675 5673 5671 5669 5667 5665 5662 5660 5657 5655 5653 5651 5649 5647 5645 5643 5643 5641 5640 5640 5639 5638 5637 5636 5634 5633
5708 5706 5704 5702 5700 5698 5696 5694 5693 5690 5688 5687 5684 5682 5679 5676 5673 5670 5668 5666 5664 5662 5660 5657 5655 5652 5650 5648 5646 5643 5642 5640 5638 5637 5636 5635 5635 5634 5634 5633 5631 5630 5630
5702 5700 5697 5695 5693 5692 5691 5689 5688 5686 5685 5682 5680 5677 5674 5671 5668 5666 5664 5661 5659 5656 5654 5652 5649 5647 5644 5642 5640 5638 5637 5635 5634 5633 5631 5630 5630 5629 5628 5628 5627 5626 5627
5696 5693 5689 5688 5686 5685 5684 5683 5682 5681 5679 5677 5675 5672 5670 5667 5664 5661 5659 5656 5654 5650 5648 5646 5643 5641 5639 5637 5635 5634 5632 5631 5630 5629 5628 5627 5625 5625 5624 5624 5623 5622 5621
5689 5687 5684 5682 5680 5679 5678 5678 5677 5675 5674 5671 5669 5666 5664 5662 5659 5656 5653 5651 5648 5645 5642 5640 5637 5636 5634 5633 5631 5629 5628 5626 5625 5624 5624 5623 5622 5622 5621 5620 5619 5618 5616
5683 5682 5680 5677 5675 5674 5673 5672 5671 5670 5668 5665 5662 5661 5658 5655 5652 5649 5647 5644 5641 5639 5636 5633 5631 5629 5629 5628 5627 5625 5623 5622 5621 5619 5619 5619 5617 5617 5617 5616 5615 5614 5612
5676 5675 5674 5673 5672 5671 5670 5668 5667 5666 5663 5660 5657 5655 5652 5648 5645 5643 5640 5637 5634 5632 5630 5628 5626 5625 5623 5623 5622 5621 5619 5618 5616 5615 5614 5614 5614 5612 5611 5611 5611 5610 5609
5668 5668 5668 5667 5668 5668 5667 5664 5662 5660 5657 5654 5652 5649 5646 5643 5640 5637 5634 5632 5629 5626 5624 5623 5622 5620 5619 5618 5617 5616 5615 5613 5612 5611 5610 5609 5608 5608 5607 5606 5605 5604 5604
5663 5663 5663 5662 5662 5662 5661 5658 5655 5653 5650 5648 5646 5644 5641 5637 5634 5631 5628 5626 5624 5621 5619 5618 5616 5614 5613 5613 5612 5611 5609 5608 5607 5606 5605 5605 5603 5603 5603 5601 5600 5599 5599
5657 5657 5657 5657 5655 5655 5654 5651 5647 5645 5643 5642 5641 5639 5636 5632 5628 5626 5623 5621 5619 5617 5615 5613 5611 5609 5608 5607 5607 5605 5603 5602 5601 5601 5600 5600 5599 5598 5597 5595 5594 5593 5592
5649 5649 5649 5648 5648 5648 5646 5642 5640 5638 5638 5637 5635 5632 5630 5627 5624 5621 5618 5615 5613 5611 5610 5608 5606 5604 5603 5602 5601 5599 5597 5596 5595 5595 5594 5593 5593 5592 5591 5590 5589 5588 5588
5641 5641 5640 5639 5640 5640 5638 5635 5633 5634 5632 5630 5627 5625 5623 5622 5619 5615 5612 5610 5608 5606 5604 5602 5600 5599 5598 5596 5595 5594 5592 5591 5589 5588 5588 5588 5587 5586 5585 5584 5584 5584 5583
5632 5632 5631 5631 5632 5632 5630 5627 5627 5627 5625 5622 5620 5618 5617 5615 5613 5609 5606 5604 5602 5600 5598 5596 5594 5593 5592 5590 5589 5587 5586 5584 5583 5583 5582 5582 5581 5580 5578 5578 5577 5577 5576
5624 5624 5623 5622 5623 5623 5622 5621 5620 5620 5618 5615 5613 5612 5610 5608 5605 5603 5601 5598 5596 5594 5592 5591 5589 5587 5585 5583 5581 5580 5578 5577 5575 5575 5575 5574 5573 5572 5571 5570 5569 5569 5569
5617 5617 5616 5615 5615 5616 5614 5614 5613 5612 5610 5609 5607 5605 5603 5601 5598 5596 5593 5592 5590 5588 5586 5585 5584 5581 5579 5577 5576 5574 5572 5570 5568 5567 5566 5565 5563 5563 5562 5562 5562 5562 5562
5609 5609 5608 5608 5608 5608 5608 5608 5607 5605 5603 5601 5600 5597 5595 5593 5591 5588 5585 5584 5583 5582 5581 5579 5577 5575 5573 5571 5568 5567 5565 5564 5562 5561 5559 5558 5557 5555 5555 5555 5554 5554 5554